[[{"header":{"parameterUnit":"m.s-1","parameterCategory":1,"la1":30.2991,"la2":30.254,"lo1":-89.0895,"lo2":-89.0444,"dy":0.0017,"dx":0.0017,"nx":28,"ny":28,"refTime":"2024-12-19T09:00:00:Z","depth":0,"parameterNumber":2,"parameterNumberName":"U-component_of_WINDS"},"data":[0,0,0,0,0,0,0,0,0,0,0,0,0,0,0,0,0,0,0,0,0,0,0,0,0,0,0,0,0,0,0,0,0,0,0,0,0,0,0,0,0,0,0,0,0,0,0,0,0,0,0,0,0,0,0,0,0,0,-1.035,-1.035,0,-1.0359,-1.0359,-1.0359,-1.0347,-1.0346,-1.0346,-1.0346,-1.0356,-1.0356,-1.0357,0,0,0,0,0,0,0,0,0,0,0,0,0,-1.0321,-1.0322,-1.035,-1.035,-1.035,-1.0359,-1.0359,-1.0359,-1.0347,-1.0346,-1.0346,-1.0345,-1.0356,-1.0356,-1.0357,0,0,0,0,0,0,0,0,0,0,0,0,0,-1.0333,-1.0322,-1.035,-1.0345,-1.0345,-1.0359,-1.0359,-1.0359,-1.0347,-1.0346,-1.0346,-1.0345,-1.0355,-1.0356,-1.0357,-1.0377,0,0,-1.036,-1.0361,0,0,0,0,0,0,0,0,-1.0332,-1.0334,-1.0346,-1.0345,-1.0345,-1.0351,-1.0353,-1.0365,-1.0347,-1.0346,-1.0346,-1.0345,-1.0355,-1.0356,-1.0359,-1.0378,-1.0378,-1.0361,-1.0361,-1.0362,-1.0362,0,0,0,0,0,0,0,-1.0331,-1.0333,-1.0354,-1.0346,-1.0345,-1.0342,-1.0343,-1.0355,-1.0354,-1.0346,-1.0345,-1.0347,-1.0355,-1.0358,-1.0359,-1.0378,-1.0361,-1.0361,-1.0362,-1.0362,-1.0413,-1.0413,0,0,0,0,0,0,-1.0331,-1.0333,-1.0353,-1.0354,-1.0337,-1.0343,-1.0344,-1.035,-1.0354,-1.0354,-1.0347,-1.0346,-1.0357,-1.0358,-1.036,-1.0383,-1.0362,-1.0363,-1.0363,-1.0412,-1.0413,-1.0414,0,0,0,0,0,0,-1.033,-1.0333,-1.0353,-1.0343,-1.0345,-1.0345,-1.0351,-1.035,-1.0354,-1.0355,-1.0354,-1.0351,-1.0356,-1.0358,-1.0373,-1.0383,-1.0363,-1.0364,-1.0411,-1.0412,-1.0413,-1.0429,0,0,0,0,0,0,-1.033,-1.0333,-1.034,-1.0343,-1.0346,-1.0366,-1.0352,-1.0351,-1.0356,-1.0354,-1.0358,-1.0358,-1.0356,-1.0371,-1.0374,-1.0384,-1.0365,-1.041,-1.0412,-1.0413,-1.0428,-1.0431,-1.0433,0,0,0,0,0,-1.0329,-1.0345,-1.0341,-1.0344,-1.0355,-1.0367,-1.0368,-1.0365,-1.0357,-1.0364,-1.0364,-1.0358,-1.0381,-1.0373,-1.0375,-1.0386,-1.041,-1.0411,-1.0413,-1.0426,-1.043,-1.0433,0,0,0,0,0,0,-1.0344,-1.0345,-1.0341,-1.0359,-1.0362,-1.0364,-1.0374,-1.0369,-1.0375,-1.0374,-1.0369,-1.037,-1.0386,-1.0387,-1.0378,-1.0405,-1.0394,-1.0396,-1.0403,-1.0407,-1.0409,-1.0409,-1.0366,0,0,0,0,0,-1.0349,-1.0358,-1.0359,-1.0375,-1.0377,-1.0375,-1.038,-1.0377,-1.0381,-1.0382,-1.0384,-1.0388,-1.0396,-1.0402,-1.0409,-1.0428,-1.0428,-1.0436,-1.0439,-1.0441,-1.0443,-1.0452,-1.0456,-1.0419,-1.0419,-1.0419,0,0,-1.0361,-1.0363,-1.0369,-1.0378,-1.038,-1.0389,-1.0377,-1.0387,-1.0394,-1.0384,-1.0398,-1.0399,-1.0403,-1.0419,-1.0427,-1.0421,-1.0453,-1.0443,-1.0445,-1.0446,-1.0454,-1.0458,-1.0461,-1.042,-1.042,-1.0419,0,0,-1.0386,-1.0389,-1.0401,-1.0404,-1.0408,-1.0407,-1.041,-1.0412,-1.0412,-1.0426,-1.0418,-1.0426,-1.044,-1.0444,-1.0447,-1.0472,-1.0466,-1.0475,-1.0489,-1.0498,-1.0501,-1.0503,-1.0512,-1.0515,-1.0477,-1.0477,-1.0477,0,-1.04,-1.0413,-1.0409,-1.0419,-1.0423,-1.0414,-1.0427,-1.043,-1.0436,-1.0439,-1.0433,-1.045,-1.0452,-1.0469,-1.0475,-1.0478,-1.0481,-1.0474,-1.0501,-1.0503,-1.0505,-1.0514,-1.0517,-1.0478,-1.0478,-1.0477,-1.0477,0,-1.043,-1.0439,-1.0449,-1.0454,-1.0459,-1.0471,-1.0468,-1.0474,-1.047,-1.0469,-1.0482,-1.0485,-1.0492,-1.0496,-1.0493,-1.0512,-1.0508,-1.0501,-1.049,-1.051,-1.0517,-1.0521,-1.0479,-1.0479,-1.0478,-1.0478,0,0,-1.0466,-1.0468,-1.0472,-1.0474,-1.0477,-1.0484,-1.0495,-1.0501,-1.0506,-1.0511,-1.0519,-1.0531,-1.0524,-1.0528,-1.0525,-1.0533,-1.0552,-1.0525,-1.0525,-1.053,-1.0572,-1.0577,-1.0581,-1.0548,-1.0548,-1.0549,-1.0572,0,-1.0491,-1.0509,-1.0505,-1.0523,-1.0531,-1.0522,-1.0532,-1.0535,-1.0534,-1.0541,-1.054,-1.0548,-1.0539,-1.0541,-1.0548,-1.0548,-1.056,-1.0546,-1.0556,-1.0556,-1.0555,-1.0585,-1.0591,-1.0612,-1.0575,-1.0575,-1.0576,0,-1.0522,-1.0527,-1.0546,-1.0547,-1.055,-1.0559,-1.0564,-1.0571,-1.0573,-1.0572,-1.0576,-1.0571,-1.0581,-1.057,-1.0584,-1.0575,-1.0578,-1.0578,-1.0579,-1.058,-1.0567,-1.0586,-1.0619,-1.0622,-1.058,-1.058,-1.058,0,-1.0546,-1.0557,-1.057,-1.0572,-1.0573,-1.058,-1.058,-1.0582,-1.0586,-1.0591,-1.0594,-1.06,-1.0603,-1.0607,-1.0604,-1.0596,-1.0619,-1.0607,-1.0618,-1.0618,-1.0623,-1.0623,-1.0656,-1.0626,-1.0626,-1.0625,-1.0625,0,-1.0574,-1.0586,-1.058,-1.0588,-1.0601,-1.0596,-1.0608,-1.0608,-1.061,-1.0617,-1.061,-1.0617,-1.0612,-1.0619,-1.0616,-1.0628,-1.063,-1.0629,-1.0628,-1.0629,-1.0629,-1.0632,-1.063,-1.0626,-1.0626,-1.0626,-1.0626,0,-1.0603,-1.06,-1.0613,-1.0613,-1.0613,-1.0622,-1.0622,-1.0629,-1.0627,-1.0637,-1.0639,-1.0636,-1.0644,-1.064,-1.0648,-1.0646,-1.0661,-1.0659,-1.066,-1.066,-1.067,-1.0669,-1.0707,-1.0711,-1.0678,-1.0678,-1.0678,0,-1.0621,-1.063,-1.063,-1.0635,-1.0636,-1.0643,-1.0646,-1.0641,-1.0646,-1.0649,-1.0655,-1.0662,-1.0667,-1.0679,-1.0678,-1.0683,-1.0681,-1.0693,-1.0682,-1.0682,-1.068,-1.068,-1.068,-1.0696,-1.0696,-1.0696,-1.0697,0,-1.0653,-1.0651,-1.0657,-1.0661,-1.0666,-1.067,-1.0673,-1.0676,-1.0671,-1.0676,-1.0683,-1.0687,-1.0695,-1.0701,-1.0706,-1.0707,-1.0701,-1.07,-1.0703,-1.0705,-1.0705,-1.0705,-1.0667,-1.07,-1.0699,-1.0699,-1.0699,-1.0699,-1.0677,-1.0684,-1.0685,-1.0691,-1.0693,-1.0696,-1.0702,-1.0701,-1.0706,-1.0712,-1.0708,-1.0717,-1.0718,-1.0724,-1.0726,-1.0732,-1.0727,-1.0731,-1.0732,-1.0733,-1.0734,-1.0704,-1.0733,-1.0733,-1.0733,-1.0733,-1.0732,0,-1.0709,-1.0709,-1.0714,-1.0718,-1.0723,-1.0716,-1.0719,-1.0724,-1.0731,-1.0733,-1.0737,-1.0745,-1.0751,-1.075,-1.0755,-1.076,-1.0758,-1.0762,-1.0762,-1.0762,-1.0739,-1.0735,-1.0764,-1.0764,-1.0764,-1.0764,-1.0764,-1.0764,-1.0725,-1.0737,-1.0734,-1.0746,-1.0746,-1.0753,-1.0755,-1.0758,-1.0759,-1.0768,-1.0773,-1.0772,-1.0772,-1.0778,-1.0783,-1.0782,-1.0784,-1.079,-1.0788,-1.0767,-1.0763,-1.076,-1.0757,-1.079,-1.079,-1.0811,-1.0811,-1.0811]},{"header":{"parameterUnit":"m.s-1","parameterCategory":1,"la1":30.2991,"la2":30.254,"lo1":-89.0895,"lo2":-89.0444,"dy":0.0017,"dx":0.0017,"nx":28,"ny":28,"refTime":"2024-12-19T09:00:00:Z","depth":0,"parameterNumber":3,"parameterNumberName":"V-component_of_WINDS"},"data":[0,0,0,0,0,0,0,0,0,0,0,0,0,0,0,0,0,0,0,0,0,0,0,0,0,0,0,0,0,0,0,0,0,0,0,0,0,0,0,0,0,0,0,0,0,0,0,0,0,0,0,0,0,0,0,0,0,0,-6.1302,-6.1304,0,-6.143,-6.1432,-6.1433,-6.142,-6.1418,-6.1416,-6.1414,-6.154,-6.1546,-6.1551,0,0,0,0,0,0,0,0,0,0,0,0,0,-6.1042,-6.1047,-6.1302,-6.1304,-6.1305,-6.143,-6.1432,-6.1434,-6.142,-6.1418,-6.1415,-6.1413,-6.1539,-6.1545,-6.1551,0,0,0,0,0,0,0,0,0,0,0,0,0,-6.1161,-6.1049,-6.1302,-6.1314,-6.1316,-6.143,-6.1432,-6.1434,-6.1421,-6.1418,-6.1415,-6.1412,-6.1537,-6.1544,-6.1552,-6.1661,0,0,-6.1576,-6.1579,0,0,0,0,0,0,0,0,-6.1154,-6.1171,-6.131,-6.1313,-6.1316,-6.1406,-6.1387,-6.151,-6.1422,-6.1381,-6.1414,-6.141,-6.1498,-6.1509,-6.1539,-6.1667,-6.1672,-6.1577,-6.1582,-6.1585,-6.1587,0,0,0,0,0,0,0,-6.1146,-6.1165,-6.1353,-6.1312,-6.1316,-6.1312,-6.1325,-6.141,-6.1454,-6.1384,-6.1384,-6.1399,-6.1499,-6.1532,-6.1542,-6.1674,-6.1577,-6.1584,-6.1588,-6.1591,-6.1898,-6.1902,0,0,0,0,0,0,-6.1136,-6.1158,-6.1349,-6.1357,-6.1226,-6.1319,-6.1334,-6.138,-6.1454,-6.1462,-6.1402,-6.1398,-6.152,-6.1533,-6.1546,-6.168,-6.1585,-6.1592,-6.1597,-6.1895,-6.1899,-6.1903,0,0,0,0,0,0,-6.113,-6.1153,-6.1343,-6.1257,-6.1281,-6.1327,-6.1378,-6.1384,-6.1417,-6.1467,-6.1474,-6.1427,-6.1518,-6.1535,-6.1633,-6.1684,-6.1596,-6.1603,-6.1891,-6.1896,-6.1901,-6.1946,0,0,0,0,0,0,-6.1123,-6.1151,-6.1193,-6.1259,-6.1286,-6.1429,-6.1382,-6.1389,-6.1431,-6.1428,-6.1493,-6.1501,-6.1517,-6.1622,-6.1641,-6.1693,-6.1609,-6.1887,-6.1893,-6.1899,-6.194,-6.1952,-6.1962,0,0,0,0,0,-6.1114,-6.1199,-6.1195,-6.1218,-6.134,-6.1432,-6.1447,-6.1466,-6.1436,-6.1478,-6.151,-6.1499,-6.1675,-6.1632,-6.1653,-6.1709,-6.1883,-6.1891,-6.1899,-6.1935,-6.195,-6.1962,0,0,0,0,0,0,-6.1136,-6.1208,-6.1204,-6.1314,-6.1367,-6.1429,-6.1484,-6.148,-6.1542,-6.1536,-6.1555,-6.1569,-6.1668,-6.1698,-6.1648,-6.1818,-6.1775,-6.1788,-6.1795,-6.181,-6.182,-6.1811,-6.1616,0,0,0,0,0,-6.1154,-6.1224,-6.1282,-6.1373,-6.1401,-6.1438,-6.1478,-6.1488,-6.1543,-6.1565,-6.1605,-6.1657,-6.1725,-6.1769,-6.1834,-6.1945,-6.1959,-6.1994,-6.2005,-6.2013,-6.2024,-6.2086,-6.2102,-6.1928,-6.1928,-6.1928,0,0,-6.1191,-6.1239,-6.1282,-6.1379,-6.1422,-6.1493,-6.1457,-6.1533,-6.1586,-6.1576,-6.1672,-6.1703,-6.1763,-6.1868,-6.1917,-6.1896,-6.2075,-6.2023,-6.203,-6.2036,-6.2096,-6.2112,-6.2127,-6.1934,-6.1933,-6.1932,0,0,-6.1296,-6.1339,-6.1421,-6.1465,-6.1531,-6.1555,-6.1575,-6.1639,-6.166,-6.1756,-6.1751,-6.1814,-6.1929,-6.1973,-6.201,-6.2135,-6.2126,-6.2155,-6.2212,-6.2273,-6.2287,-6.2299,-6.2344,-6.236,-6.2165,-6.2166,-6.2166,0,-6.1334,-6.1442,-6.1462,-6.1541,-6.1584,-6.1582,-6.1664,-6.1705,-6.1788,-6.1817,-6.1794,-6.1941,-6.1981,-6.2097,-6.2128,-6.2158,-6.2181,-6.2147,-6.2283,-6.2296,-6.2308,-6.2351,-6.2367,-6.2169,-6.2168,-6.2168,-6.2168,0,-6.1485,-6.1561,-6.1619,-6.1702,-6.1751,-6.1831,-6.1863,-6.1911,-6.1917,-6.1944,-6.2043,-6.2092,-6.2167,-6.2195,-6.2201,-6.2313,-6.2299,-6.2279,-6.2236,-6.2327,-6.2368,-6.2384,-6.2173,-6.2172,-6.2171,-6.217,0,0,-6.1606,-6.1701,-6.1722,-6.1761,-6.1834,-6.1892,-6.1972,-6.2048,-6.2089,-6.2147,-6.2214,-6.2314,-6.2297,-6.234,-6.235,-6.2404,-6.25,-6.2378,-6.238,-6.2399,-6.2628,-6.2642,-6.2661,-6.2496,-6.2499,-6.2502,-6.2623,0,-6.1718,-6.1862,-6.1884,-6.2009,-6.208,-6.208,-6.215,-6.2202,-6.223,-6.2293,-6.2323,-6.2393,-6.2366,-6.2392,-6.2444,-6.2477,-6.2546,-6.2469,-6.2558,-6.2561,-6.2543,-6.2682,-6.2697,-6.2809,-6.2639,-6.2642,-6.2644,0,-6.1867,-6.1932,-6.2066,-6.2132,-6.2163,-6.2225,-6.2298,-6.2358,-6.2418,-6.2434,-6.2484,-6.2489,-6.2571,-6.2525,-6.264,-6.2586,-6.2624,-6.2646,-6.2651,-6.266,-6.2608,-6.2695,-6.2845,-6.2862,-6.2669,-6.2667,-6.2665,0,-6.1943,-6.2063,-6.2159,-6.2192,-6.2271,-6.2316,-6.235,-6.2407,-6.2452,-6.2515,-6.2545,-6.2616,-6.2655,-6.2709,-6.2733,-6.2698,-6.2846,-6.2802,-6.2862,-6.2861,-6.2892,-6.289,-6.3052,-6.2917,-6.2917,-6.2917,-6.2916,0,-6.2065,-6.2147,-6.2194,-6.2253,-6.2345,-6.237,-6.246,-6.2493,-6.2545,-6.261,-6.2613,-6.2674,-6.2702,-6.2767,-6.2786,-6.2879,-6.2896,-6.2911,-6.2915,-6.2911,-6.2909,-6.2935,-6.2928,-6.2921,-6.292,-6.2919,-6.2918,0,-6.2164,-6.2199,-6.2304,-6.2372,-6.2391,-6.2456,-6.2514,-6.2571,-6.2599,-6.2682,-6.2702,-6.2747,-6.2824,-6.2854,-6.2946,-6.296,-6.3066,-6.3064,-6.3047,-6.3048,-6.3106,-6.31,-6.329,-6.3316,-6.3164,-6.3166,-6.3167,0,-6.224,-6.2304,-6.238,-6.2425,-6.2462,-6.2534,-6.2581,-6.2608,-6.2656,-6.2731,-6.2779,-6.2856,-6.292,-6.3043,-6.3082,-6.3154,-6.3153,-6.3215,-6.3164,-6.3158,-6.3155,-6.3151,-6.3158,-6.3224,-6.3226,-6.3227,-6.3228,0,-6.2371,-6.2386,-6.2455,-6.253,-6.2587,-6.2647,-6.2705,-6.2741,-6.2777,-6.2832,-6.2912,-6.2961,-6.3058,-6.3135,-6.321,-6.3244,-6.3242,-6.3244,-6.3262,-6.3258,-6.3246,-6.3254,-6.3073,-6.3239,-6.3238,-6.3237,-6.3237,-6.3236,-6.2461,-6.2519,-6.2582,-6.2658,-6.2706,-6.2761,-6.2819,-6.2856,-6.2924,-6.3007,-6.3018,-6.3104,-6.3164,-6.3264,-6.3302,-6.3369,-6.3353,-6.3378,-6.3385,-6.3391,-6.3395,-6.3236,-6.3383,-6.3383,-6.3382,-6.3382,-6.3382,0,-6.2593,-6.2635,-6.2705,-6.2788,-6.2849,-6.2845,-6.291,-6.296,-6.3037,-6.3093,-6.3157,-6.3249,-6.3325,-6.3372,-6.3447,-6.3492,-6.3493,-6.3511,-6.3508,-6.3516,-6.3405,-6.3383,-6.3509,-6.3509,-6.3509,-6.3509,-6.3509,-6.3509,-6.2669,-6.2766,-6.2789,-6.291,-6.2951,-6.3037,-6.3074,-6.3125,-6.3171,-6.3276,-6.3339,-6.337,-6.3423,-6.3503,-6.3572,-6.3584,-6.3611,-6.3631,-6.3641,-6.3537,-6.3523,-6.3511,-6.349,-6.3636,-6.3637,-6.3746,-6.3747,-6.3748]}]]